sat.trackr.live / text

‹ back to catalog

STARLINK-2459

NORAD 48119 · 2021-027AD

PAYLOAD ACTIVE UNKNOWN

§ Identity

Operator
Country
US
Launch date
2021-04-07
Launch site
AFETR
Launch vehicle
Mass (kg)
RCS (m²)

Purposes: comms

External: N2YO · Heavens-Above · Gunter

§ Orbital elements

Epoch: 2026-09-19T18:24:54.289728Z

Period
94.01 min
Inclination
53.1613°
Eccentricity
0.0001613
Mean motion
15.31698748 rev/d
Perigee alt
469.6 km
Apogee alt
471.8 km
Semi-major
6,848.9 km
B*
-3.2128e-5
RAAN
329.2174°
Arg perigee
53.9042°
Mean anomaly
306.2109°
Rev number
30,241

§ Raw data

STARLINK-24591 48119U 21027AD  26262.76729502 -.00001362  00000+0 -32128-4 0  99942 48119  53.1613 329.2174 0001613  53.9042 306.2109 15.31698748302419

JSON: /api/v1/satellites/48119 · /tle

For live sub-satellite position, see the globe view (requires WebGL).

§ Visibility from observer

Set your observer location to see the next 7 days of passes ≥ 10°. The values pass through the URL so the page stays shareable.

No JS? Fill the form by hand. The geolocation button needs JavaScript.